Regional Weather Roundup
Issued by NWS Bismarck, ND

Home | Current Version | Previous Version | Text Only | Print | Product List | Glossary On
Versions: 1 2 3 4 5 6 7 8 9 10 11 12 13 14 15 16 17 18 19 20 21 22 23 24 25 26 27 28 29 30 31 32 33 34 35 36 37 38 39 40 41 42 43 44 45 46 47 48 49 50
000
ASUS43 KBIS 250620
RWRBIS

NWR BROADCAST TEXT
NATIONAL WEATHER SERVICE BISMARCK ND
100 AM CDT FRI APR 25 2014

NOTE: "FAIR" INDICATES FEW OR NO CLOUDS BELOW 12,000 FEET WITH NO
SIGNIFICANT WEATHER AND/OR OBSTRUCTIONS TO VISIBILITY.


CITY           SKY/WX    TMP DP  RH WIND       PRES   REMARKS
WILLISTON      CLOUDY    39  30  70 CALM      29.71S
MINOT          FAIR      38  31  76 SW7       29.69F
MINOT AFB      FAIR      36  33  90 NW6       29.69S
BISMARCK       CLEAR     34  29  82 CALM      29.75S
DICKINSON      MOCLDY    42  26  53 SW8       29.74S
GARRISON         N/A     39  32  76 CALM      29.71F
HETTINGER ARPT CLOUDY    48  28  46 NW9       29.78S
JAMESTOWN      FAIR      37  34  89 W3        29.72S
CARRINGTON     FAIR      34  34 100 W7        29.73S
CROSBY           N/A     32  32 100 MISG        N/A
HARVEY         FOG       36  36 100 S7        29.72S VSB 1
HAZEN          CLOUDY    30  25  80 CALM      29.75R
LINTON         FAIR      32  28  86 E6        29.75S
MANDAN         MOCLDY    39  27  60 SW7       29.75S
OAKES          FAIR      37  37 100 SW7       29.74R
RUGBY          FAIR      37  37 100 S8        29.70F FOG
STANLEY        FAIR      32  30  93 W3        29.71S
TIOGA          FAIR      30  28  93 CALM      29.74S
WATFORD CITY   FAIR      36  27  69 CALM      29.71R
$$

CITY           SKY/WX    TMP DP  RH WIND       PRES   REMARKS
GRAND FORKS    FOG       39  38  96 NE5       29.71S VSB 1/2
GRAND FORKS AF FOG       40  40 100 N5        29.72S VSB 1/2
DEVILS LAKE    CLOUDY    37  34  87 SW5       29.72S VSB 1/2
FARGO          FOG       38  37  97 W7        29.72R VSB 1/2
CANDO          FOG       37  37 100 S3        29.72S VSB 1/2
CAVALIER       CLOUDY    36  36 100 NE5       29.74R FOG
GRAFTON        FOG       36  36 100 NE3       29.72S VSB 3/4
GWINNER        CLEAR     34  34 100 W8        29.74S
LANGDON        CLOUDY    39  39 100 CALM      29.71S FOG
ROLLA          FAIR      37  37 100 W9        29.71S
WALHALLA       FOG       36  36 100 CALM      29.74S VSB 3/4
$$

CITY           SKY/WX    TMP DP  RH WIND       PRES   REMARKS
ABERDEEN       MOCLDY    39  32  76 NW3       29.76S
MOBRIDGE       CLOUDY    47  29  49 S7        29.74S
BUFFALO          N/A     45  30  55 SW6       29.73S
RAPID CITY     CLOUDY    41  28  60 NW5       29.81S
GLASGOW        PTCLDY    48  33  56 SW6       29.72R
SIDNEY         CLOUDY    50  28  43 W9        29.73S
WOLF POINT     CLOUDY    48  29  47 SW5       29.72S
GLENDIVE       MOCLDY    45  30  57 W7        29.76S
MILES CITY     PTCLDY    47  34  60 CALM      29.77R
BAKER          PTCLDY    42  32  67 S6        29.78S
$$

CITY           SKY/WX    TMP DP  RH WIND       PRES   REMARKS
BILLINGS       CLEAR     49  33  54 W13       29.80S
GREAT FALLS    PTCLDY    43  31  62 SW16      29.75F
REGINA         PTCLDY    34  32  93 S6        29.72S
ESTEVAN        PTCLDY    37  34  87 E6        29.70
$$




USA.gov is the U.S. government's official web portal to all federal, state and local government web resources and services.